Location: Unspecified
(0.0000°N, 0.0000°E)
Time: 10:33:54
(UTC+00:00)

NIMBUS 2 DEB - Pass Details

Date: 18 December 2025
Orbit: 956 x 1029 km, 100.4° (Epoch: 17 January)

Event Time Altitude Azimuth Distance (km) Brightness Sun altitude
Rises 04:13:24 0° 198° (SSW) 3,646 ? -23.5°
Reaches altitude 10° 04:16:49 10° 218° (SW) 2,707 ? -22.8°
Enters shadow 04:18:26 14° 233° (SW) 2,419 ? -22.4°
